Regional Weather Roundup
Issued by NWS Jackson, KY

Home | Current Version | Previous Version | Graphics & Text | Print | Product List | Glossary On
Versions: 1 2 3 4 5 6 7 8 9 10 11 12 13 14 15 16 17 18 19 20 21 22 23 24 25 26 27 28 29 30 31 32 33 34 35 36 37 38 39 40 41 42 43 44 45 46 47 48 49 50
108
ASUS43 KJKL 270510
RWRJKL

EAST KENTUCKY HOURLY WEATHER ROUNDUP
NATIONAL WEATHER SERVICE JACKSON KY
1200 AM EST MON FEB 27 2017

NOTE: "FAIR" INDICATES FEW OR NO CLOUDS BELOW 12,000 FEET WITH
NO SIGNIFICANT WEATHER AND/OR OBSTRUCTIONS TO VISIBILITY.

* THESE REPORTS ARE NOT UNDER NWS QUALITY CONTROL AND MAY NOT
  REPORT WEATHER SUCH AS PRECIPITATION AND FOG.

KYZ079-080-083-085-087-088-110-112-115-119-120-270600
...EASTERN KENTUCKY...

CITY           SKY/WX    TMP DP  RH WIND       PRES   REMARKS
JACKSON        MOCLDY    41  19  41 SW3       30.19F
LONDON         MOCLDY    37  25  61 SE3       30.20S
SOMERSET*      CLOUDY    37  25  60 CALM      30.20F
MONTICELLO*    CLOUDY    45  23  42 E8        30.19F
WILLIAMSBURG*  PTCLDY    41  19  42 SE6       30.20S
MIDDLESBORO*   PTCLDY    34  28  80 CALM      30.24S
HARLAN APT*    MOCLDY    34  27  75 CALM      30.23S
PIKE CO APT*   CLOUDY    41  18  39 SE5       30.21S
BIG SANDY APT* MOCLDY    40  20  46 SE3       30.21F
MOREHEAD APT*  CLOUDY    41  18  38 S6        30.22R
ASHLAND*       CLOUDY    36  28  75 CALM      30.20S
$$

KYZ035-036-041-042-044-050-067-078-099-270600
...CENTRAL KENTUCKY...

CITY           SKY/WX    TMP DP  RH WIND       PRES   REMARKS
FLEMING/MASON* CLOUDY    38  22  53 S6        30.20S WCI  33
DANVILLE*      CLOUDY    43  23  45 SW6       30.19F
LEXINGTON      CLOUDY    45  17  32 S9        30.17F
FRANKFORT      CLOUDY    43  20  39 CALM      30.16F
LOUISVILLE     CLOUDY    45  18  34 SE5       30.16F
LEBANON*         N/A     46  19  34 S6        30.18R
GLASGOW*       CLOUDY    45  24  45 CALM      30.18R
BOWLING GREEN  CLOUDY    46  24  42 CALM      30.18R
$$

KYZ091>093-OHZ055-061-077-WVZ005-015-034-035-042-270600
...SOUTHERN OHIO/WEST VIRGINIA...

CITY           SKY/WX    TMP DP  RH WIND       PRES   REMARKS
COVINGTON      CLOUDY    39  21  48 S6        30.17R WCI  35
COLUMBUS       MOCLDY    40  19  43 S5        30.18R
DAYTON         MOCLDY    39  18  42 S8        30.17R WCI  33
WILMINGTON     CLOUDY    36  23  59 S6        30.17S WCI  31
HUNTINGTON     MOCLDY    34  20  56 E3        30.20S
CHARLESTON     PTCLDY    32  22  66 CALM      30.21F
PINEVILLE*       N/A     31  22  67 MISG      30.28S
BECKLEY        MOCLDY    36  12  37 SE7       30.21S WCI  30
BLUEFIELD      PTCLDY    37   6  27 SW5       30.22S WCI  33
LOGAN CO APT*  CLOUDY    39  16  38 S6        30.21S WCI  35
$$

VAZ002-007-008-TNZ017-027-036-066-071-270600
...SOUTHWEST VIRGINIA/EAST TENNESSEE...

CITY           SKY/WX    TMP DP  RH WIND       PRES   REMARKS
WISE*          CLOUDY    41  12  30 CALM      30.21F
JONESVILLE*      N/A     32  27  80 CALM      30.26S
ABINGDON*      CLEAR     33  21  62 CALM      30.23S
BRISTOL        PTCLDY    30  24  78 CALM      30.23S
MORRISTOWN*    PTCLDY    39  21  48 E3        30.20F
SEVIERVILLE*   CLEAR     34  25  69 CALM      30.21F
KNOXVILLE      PTCLDY    41  24  51 NE5       30.21F
LAFOLLETTE*    CLOUDY    34  28  80 CALM      30.25S
OAK RIDGE      PTCLDY    39  26  59 CALM      30.23S
CROSSVILLE     CLOUDY    46  18  32 VRB5      30.16F
NASHVILLE      CLOUDY    49  27  42 CALM      30.17R
$$

...KEY TO REMARKS...
VSB - VISIBILITY IN MILES
WCI - WIND CHILL INDEX
HX  - HEAT INDEX

$$




USA.gov is the U.S. government's official web portal to all federal, state and local government web resources and services.